Tracking 30743 objects as of 21-Jun-2025
HD Live streaming from Space Station
objects crossing your sky now

WESTFORD NEEDLES

Track WESTFORD NEEDLES now!
10-day predictions
WESTFORD NEEDLES is classified as:


NORAD ID: 19059
Int'l Code: 1963-014EG
Perigee: 3,604.8 km
Apogee: 3,679.2 km
Inclination: 87.3 °
Period: 166.2 minutes
Semi major axis: 10012 km
RCS: 0.205 m2 (medium)
Launch date: May 9, 1963
Source: United States (US)
Launch site: AIR FORCE WESTERN TEST RANGE (AFWTR)
Your satellite tracking list
Your tracking list is empty




NASA's NSSDC Master Catalog

Two Line Element Set (TLE):
1 19059U 63014EG  25170.08317693  .00000069  00000-0  30723-1 0  9991
2 19059  87.3284 221.8234 0037150  53.9184 306.5103  8.66476976182329
Source of the keplerian elements: AFSPC